Retour au catalogue

STARLINK-36245

ActifCommunicationsVLEO
NORAD 68328·PAYLOAD·🇺🇸 United States

Lancé Mar 22, 2026 depuis Cape Canaveral Space Force Station

Loading…

Prochains Passages (prochaines 24 heures)

TLE

FraisSource: CelesTrak SupGP

Époque: Sep 14, 2026, 22:37 UTC

1 68328C 26059H   26257.94284722 -.00030587  00000+0 -90346-3 0  2575
2 68328  53.1587 187.4996 0001315  88.8715 326.1336 15.34414763    12

Suivez STARLINK-36245 en temps réel avec AllMySat

Download on the App Store